Weather Roundup
Issued by NWS Chicago, IL

Home | Current Version | Previous Version | Text Only | Print | Product List | Glossary On
Versions: 1 2 3 4 5 6 7 8 9 10 11 12 13 14 15 16 17 18 19 20 21 22 23 24 25 26 27 28 29 30 31 32 33 34 35 36 37 38 39 40 41 42 43 44 45 46 47 48 49 50
000
NZUS59 KLOT 200406
HRRLOT

CHICAGO AREA WEATHER ROUNDUP
NATIONAL WEATHER SERVICE CHICAGO/ROMEOVILLE IL
1100 PM CDT SAT APR 19 2014

NOTE: "FAIR" INDICATES FEW OR NO CLOUDS BELOW 12,000 FEET WITH NO
SIGNIFICANT WEATHER AND/OR OBSTRUCTIONS TO VISIBILITY.

* THESE STATIONS ARE NOT UNDER NWS QUALITY CONTROL. THEY ALSO MAY NOT
  REPORT WEATHER SUCH AS PRECIPITATION OR FOG.

ILZ005-006-012>014-019>023-200500-
NORTHEAST ILLINOIS

CITY           SKY/WX    TMP DP  RH WIND       PRES   REMARKS
OHARE          MOCLDY    56  35  45 SE14      30.23F
MIDWAY         MOCLDY    58  36  43 SE13      30.24F
AURORA         PTCLDY    55  37  50 SE13      30.22S
LANSING*       MOCLDY    55  33  44 SE10      30.26S
JOLIET*        PTCLDY    55  36  49 SE8       30.24S
WAUKEGAN       MOCLDY    45  34  65 SE8       30.23F
DUPAGE AIRPORT MOCLDY    56  37  49 SE10      30.22S
WHEELING       MOCLDY    48  37  65 SE3       30.25S
KANKAKEE*      MOCLDY    55  39  55 SE10      30.25S
MORRIS*        PTCLDY    57  33  39 SE10      30.22S
NORTHERLY IS     N/A     48  41  76 SE2         N/A
$$

WIZ051-052-058>065-066-070>072-200500-
SOUTHEAST WISCONSIN

CITY           SKY/WX    TMP DP  RH WIND       PRES   REMARKS
MILWAUKEE      MOCLDY    44  34  67 S3        30.25S
KENOSHA*       PTCLDY    47  35  63 SE10      30.23F
RACINE*        MOCLDY    46  34  62 S12       30.25S
BURLINGTON     MOCLDY    44  35  69 CALM      30.23R
WAUKESHA       MOCLDY    45  34  65 SE9       30.24S
$$

INZ001>003-010>013-019-020-200500-
NORTHWEST INDIANA

CITY           SKY/WX    TMP DP  RH WIND       PRES   REMARKS
GARY*          MOCLDY    58  32  37 SE14      30.26S
MICHIGAN CITY* NOT AVBL
RENSSELAER*    NOT AVBL
VALPARAISO     MOCLDY    49  33  54 SE10      30.28F
$$

LMZ740>746-200500-
SOUTHERN LAKE MICHIGAN

STATION/POSITION TIME  SKY/WX   TEMP WIND        PRES    VSBY
                                AIR  DIR/SP/G
                 (UTC)          (F)  (DEG/KT/KT) (MB)    (MI)
HARRISON CRIB    0400            48  140/ 13/ 16   N/A
BURNHAM HARBOR   0400            48  140/  5       N/A
CALUMET HARBOR   0400            56  130/ 11/ 15 1025.0F
BURNS HARBOR     NOT AVBL
MICHIGAN CITY    0400            55  110/  9/ 12   N/A
$$

ABBREVIATIONS USED IN REMARKS
   TC - TEMPERATURE IN CELSIUS
  WCI - WIND CHILL INDEX
   HX - HEAT INDEX
  VSB - VISIBILITY
$$


USA.gov is the U.S. government's official web portal to all federal, state and local government web resources and services.